This is the latest recevied weather packets stored in our database for station/object AA7F. If no packets are shown the sender has not sent any weather packets the latest 10 day(s).
| Time | Temp. | Humidity | Pressure | Rain* | Wind** | Luminosity | Snow |
|---|---|---|---|---|---|---|---|
| 1777669510 | 25.56° C | 32% | 1016.4 hPa | 0 mm | - | 649 W/m² | - |
| 1777669207 | 25° C | 38% | 1016.4 hPa | 0 mm | - | 652 W/m² | - |
| 1777667994 | 24.44° C | 39% | 1016.3 hPa | 0 mm | - | 652 W/m² | - |
| 1777666781 | 23.89° C | 41% | 1016.7 hPa | 0 mm | - | 676 W/m² | - |
| 1777665570 | 23.33° C | 48% | 1016.9 hPa | 0 mm | - | 688 W/m² | - |
| 1777664962 | 23.33° C | 46% | 1016.9 hPa | 0 mm | - | 696 W/m² | - |
| 1777663144 | 21.67° C | 44% | 1017.3 hPa | 0 mm | - | 734 W/m² | - |
| 1777662841 | 21.67° C | 47% | 1017.4 hPa | 0 mm | - | 740 W/m² | - |
| 1777661321 | 21.11° C | 46% | 1017.6 hPa | 0 mm | - | 783 W/m² | - |
| 1777660713 | 20.56° C | 46% | 1017.6 hPa | 0 mm | - | 792 W/m² | - |
| 1777660106 | 20° C | 50% | 1017.7 hPa | 0 mm | - | 812 W/m² | - |
| 1777659804 | 19.44° C | 45% | 1017.8 hPa | 0 mm | - | 822 W/m² | - |
| 1777659500 | 20° C | 50% | 1017.9 hPa | 0 mm | - | 851 W/m² | - |
| 1777659197 | 19.44° C | 47% | 1017.8 hPa | 0 mm | - | 860 W/m² | - |
| 1777658895 | 18.89° C | 49% | 1018 hPa | 0 mm | - | 865 W/m² | - |
| 1777656469 | 17.78° C | 49% | 1018.3 hPa | 0 mm | - | 803 W/m² | - |
| 1777656164 | 17.22° C | 51% | 1018.4 hPa | 0 mm | - | 787 W/m² | - |
| 1777655557 | 17.22° C | 50% | 1018.6 hPa | 0 mm | - | 771 W/m² | - |
| 1777654648 | 16.67° C | 54% | 1018.7 hPa | 0 mm | - | 713 W/m² | - |
| 1777654044 | 15.56° C | 53% | 1018.4 hPa | 0 mm | - | 662 W/m² | - |
| 1777653437 | 14.44° C | 55% | 1018.4 hPa | 0 mm | - | 641 W/m² | - |
| 1777653134 | 14.44° C | 56% | 1018.3 hPa | 0 mm | - | 620 W/m² | - |
| 1777652830 | 13.89° C | 56% | 1018.4 hPa | 0 mm | - | 603 W/m² | - |
| 1777652526 | 13.89° C | 57% | 1018.4 hPa | 0 mm | - | 589 W/m² | - |
| 1777652224 | 13.89° C | 58% | 1018.4 hPa | 0 mm | - | 564 W/m² | - |
* Rain latest hour (hover to see other rain measurements)
** Current wind speed in m/s (hover to see current wind gust speed)